Regional Weather Roundup
Issued by NWS Wakefield, VA

Home | Current Version | Previous Version | Text Only | Print | Product List | Glossary Off
Versions: 1 2 3 4 5 6 7 8 9 10 11 12 13 14 15 16 17 18 19 20 21 22 23 24 25 26 27

000
ASUS41 KAKQ 171616
RWRAKQ

REGIONAL WEATHER ROUNDUP
NATIONAL WEATHER SERVICE WAKEFIELD VA
1200 PM EDT THU AUG 17 2017

Note: "fair" indicates few or no clouds below 12,000 feet with no
significant weather and/or obstructions to visibility. * = Denotes
station may not report precipitation (e.g., rain,snow,etc.),
thunder or fog.

VAZ042-051-052>054-056-171700-
NORTHERN VIRGINIA

CITY           SKY/WX    TMP DP  RH WIND       PRES   REMARKS
WASH NATIONAL  MOSUNNY   85  76  74 S9        30.01F
DULLES         PTSUNNY   84  75  74 S6        30.01F
FORT BELVOIR   SUNNY     85  74  70 S7        30.01F
QUANTICO       PTSUNNY   84  78  82 S7        30.01F HX  95
FREDERICKSBRG* SUNNY     87  74  65 S6        30.00F HX  96
STAFFORD*      MOSUNNY   85  75  71 SE6       30.05F
WARRENTON      MOSUNNY   86  73  63 SE3       30.01F
CULPEPER*      SUNNY     85  76  73 SW7       30.02F HX  95
MANASSAS*      PTSUNNY   85  76  74 CALM      30.01F
LEESBURG*      MOSUNNY   84  75  74 SE3       30.03S
WINCHESTER     SUNNY     81  70  69 CALM      30.03S
FRONT ROYAL*   PTSUNNY   81  72  74 CALM      30.02F
LURAY*         SUNNY     86  72  62 S5        30.02F
$$

VAZ048-049-060>072-079>083-171700-
CENTRAL AND SOUTH CENTRAL VIRGINIA

CITY           SKY/WX    TMP DP  RH WIND       PRES   REMARKS
RICHMOND       CLOUDY    84  75  74 S8        30.03F
CHESTERFIELD*  CLOUDY    82  74  76 MISG      30.05S
PETERSBURG*    CLOUDY    82  74  78 CALM      30.05S
HANOVER        MOSUNNY   86  71  60 S9        30.04S
TAPPAHANNOCK*  SUNNY     88  69  53 SE3       30.04F
QUINTON*       FAIR      85  75  71 SE6       30.03F
CHARLOTTSVILLE SUNNY     85  73  67 VRB6      30.02F
GORDONSVILLE*  PTSUNNY   85  76  74 SW6       30.01F
ORANGE*        PTSUNNY   86  73  66 S6        30.01F
LOUISA*        MOSUNNY   84  72  65 SW7       30.03S
BUMPASS*       PTSUNNY   83  74  74 S6        30.03F
FARMVILLE*     MOSUNNY   88  68  51 S10       30.02F
CREWE*         CLOUDY    78  73  86 S9        30.06R
FORT PICKETT*  CLOUDY   N/A N/A N/A SW9       30.07S
CHASE CITY*    CLOUDY    77  77 100 E6        30.06S
CLARKSVILLE*   PTSUNNY   82  79  89 CALM      30.04F
SOUTH HILL*    CLOUDY    76  76 100 CALM      30.12S
LAWRENCEVILLE* CLOUDY    80  77  90 CALM      30.05S
EMPORIA*       CLOUDY    84  77  79 S6        30.06S
$$

VAZ088>098-171700-
SOUTHEAST VIRGINIA

CITY           SKY/WX    TMP DP  RH WIND       PRES   REMARKS
NORFOLK        SUNNY     88  66  48 S6        30.04F
VIRGINIA BEACH MOSUNNY   86  71  60 E9        30.04F
NORFOLK NAVAL  MOSUNNY   89  67  47 S5        30.05F
WEST POINT*    SUNNY     86  69  56 SE6       30.05F
SALUDA*        FAIR      83  77  83 E8        30.04F
NEWPORT NEWS   SUNNY     87  68  52 S8        30.04F
LANGLEY AFB    SUNNY     87  69  54 S6        30.04F
FORT EUSTIS    SUNNY     89  74  62 S8        30.01F HX  98
WILLIAMSBURG*    N/A     90  75  62 SE3       30.05S HX 100
HR EXEC AP*    FAIR      88  72  58 S8        30.01F
FRANKLIN*      SUNNY     86  71  59 S8        30.04F
US460-WAKEFLD  MOSUNNY   87  70  56 S6        30.04F
$$

VAZ020-022-025-037-045-171700-
WEST CENTRAL AND SOUTHWEST VIRGINIA

CITY           SKY/WX    TMP DP  RH WIND       PRES   REMARKS
STAUNTON*      MOSUNNY   82  71  68 SW5       30.06F
WAYNESBORO*    MOSUNNY   84  71  65 SW3       30.06F
HOT SPRINGS VA PTSUNNY   73  64  73 CALM      30.21S
LYNCHBURG      SUNNY     86  71  60 VRB5      30.05F
DANVILLE       MOSUNNY   87  76  69 SW5       30.04F HX  97
SOUTH BOSTON*  FAIR      88  75  66 CALM      30.03F HX  97
MARTINSVILLE   MOSUNNY   87  72  62 SW5       30.07F
ROANOKE        MOSUNNY   87  70  56 W8        30.07F
BLACKSBURG     MOSUNNY   82  72  71 SW3       30.15S
DUBLIN*        PTSUNNY   84  71  65 CALM      30.12F
MARION*        PTSUNNY   80  68  66 SW9       30.17F
HILLSVILLE*    CLOUDY    78  67  68 CALM      30.16S
RICHLANDS*     CLOUDY    75  67  77 W8        30.16F
WISE*          PTSUNNY   77  73  88 SW13      30.17S
ABINGDON*      CLOUDY    80  74  82 W7        30.14F
$$

MDZ021>025-VAZ099-100-171700-
SOUTHERN MARYLAND AND THE DELMARVA PENINSULA

CITY           SKY/WX    TMP DP  RH WIND       PRES   REMARKS
PATUXENT RIVER PTSUNNY   82  77  84 SE8       30.03S
BAY BRIDGE APT SUNNY     86  73  66 SE10      30.02F
LEONARDTOWN    PTSUNNY   82  73  74 SE6       30.05S
DOVER          SUNNY     83  83 100 E9        30.02S HX  99
GEORGETOWN     CLOUDY    84  73  69 SW9       30.05S
EASTON         MOSUNNY   86  70  58 SW8       30.07S
CAMBRIDGE      MOSUNNY   84  72  65 VRB5      30.04S
SALISBURY      CLOUDY    79  74  84 E7        30.05S
OCEAN CITY     RAIN      74  72  93 S5        30.07S FOG
WALLOPS ISLAND CLOUDY    77  75  93 E3        30.06F
ACCOMACK*      CLOUDY    83  75  77 S3        30.05F
$$

NCZ012>017-030>032-171700-
NORTH CENTRAL AND EASTERN NORTH CAROLINA

CITY           SKY/WX    TMP DP  RH WIND       PRES   REMARKS
ROANOKE RAPIDS   N/A     82  77  83 SE3       30.05S
RALEIGH        MOSUNNY   90  77  65 W5        30.05S HX 103
ELIZABETH CITY SUNNY     86  76  71 E6        30.06S HX  96
AHOSKIE*         N/A     84  76  76 CALM      30.05S
EDENTON*       SUNNY     87  73  63 CALM      30.06F HX  95
CURRITUCK*     SUNNY     86  38  18 SE3       30.06F
KILL DEVIL HLS SUNNY     81  72  72 CALM      30.05F
MANTEO         SUNNY     82  70  66 E5        30.06F
CAPE HATTERAS  CLOUDY    83  75  77 SE7       30.07S
TARBORO*       NOT AVBL
GOLDSBORO      MOSUNNY   90  81  76 S6        30.04S HX 109
WASHINGTON     SUNNY     87  75  67 S5        30.06S HX  96
GREENVILLE     PTSUNNY   88  73  62 SW5       30.07S HX  96
NEW BERN       PTSUNNY   89  75  63 SE6       30.06F HX  99
WILMINGTON     MOSUNNY   89  79  72 SE12      30.04F HX 104
$$

VAZ048-171700-
ELSEWHERE

CITY           SKY/WX    TMP DP  RH WIND       PRES   REMARKS
HARRISBURG PA  PTSUNNY   82  69  64 SE5       30.02F
BALTIMORE      PTSUNNY   83  75  77 VRB3      30.01F
ANNAPOLIS      MOSUNNY   83  77  82 SE13      30.01F
ANDREWS AFB    MOSUNNY   86  74  68 SW6       30.01F
PHILADELPHIA   MOSUNNY   84  64  50 NE7       30.04F
HENDERSON NC   MOSUNNY   85  74  69 S7        30.04F
GREENSBORO     MOSUNNY   87  75  67 SW6       30.05F HX  96
ROCKY MOUNT    MOSUNNY   87  78  74 VRB5      30.05F HX 100
$$

VAZ100-171700-
MARINE

STATION/POSITION TIME  TEMP    WIND        PRES    WAVE   SWELL
                       AIR SEA DIR/SP/G            HT/PER HT/PER
                 (UTC) (F)     (DEG/KT/KT) (MB)    (FT/S) (FT/S)
BRANDYWINE LGT   1542   77     150/  8/  9 1017.8F
CAPE MAY NJ      1542   80 78  140/  6/  8 1017.0R
LEWES DE         1542   81 77  180/  4/  5 1017.3R
15NM E FENWICK I 1450   77 78  200/  4/  4 1018.1    2/ 8   2/ 8
OCEAN-CITY-INLET 1542   76 80  240/ 12/ 14 1018.3S
WACHAPREAGUE VA  1542   83 82  190/  4/  7 1017.7F
THOMAS POINT MD  1600   79 80  170/ 10/ 11   N/A
GOOSES REEF MD   1600   80 80  180/ 10/ 10 1017.3    1/ 2
COVE POINT MD    1542   79     180/ 10/ 11 1017.6F
SOLOMONS ISLAND  1542   81 81  170/  8/  9   N/A
BISHOPS HEAD MD  1542   79 81  150/  8/  9 1017.5S
PINEY POINT MD   1542          160/ 10/ 11   N/A
POTOMAC MD       1600   79 81  150/ 10/ 12 1016.4    0
CAMBRIDGE MD     1542   85 81              1017.9S
LEWISETTA VA     1542   83 82  170/  5/  7 1017.0F
RAPPAHANNOCK LGT 1542          150/  3/  4 1018.3F
STINGRAY PT      1600   80 81  130/  8/  8 1017.9
YORK RVR RNG VA  1542   80     140/  8/  8 1017.9F
YORKTOWN VA      1542   82 81   70/  7/  8 1016.9F
JAMESTOWN VA     1600      84  150/  6/  8   N/A     0
DOMINION TERM VA 1542   82     130/  2/  3 1017.5F
KIPTOPEKE VA     1542      80  190/  7/  7   N/A
CHES BAY BRIDGE  1542   80 80  100/  5/  6 1017.5F
CAPE HENRY VA    1542   81     120/  8/ 10   N/A
WILLOUBY STN VA  1542   80      80/  6/  6 1017.6F
S CRANEY ISL VA  1542   85     150/  4/  5 1017.3F
CAPE HENRY BUOY  1530      79                N/A     2/ 8
1ST LANDING BUOY 1600   80 80              1017.4    1
64NM E OF VA BCH 1550   77 79  110/  4/  4 1018.4F   2/ 8   2/ 8
DUCK PIER NC     1542   81 79  110/  5/  6 1017.6F
44100 DUCK FRF   1505      80                N/A     2/ 8
44056 DUCK FRF   1530      79                N/A     2/ 7
OREGON INLET NC  1542   79 83   60/  5/  7 1017.9F
HATTERAS NC      1542   82 83  120/  1/  3 1018.0F
DIAMOND SHLS NC  1550   79 83   40/  4/  6 1018.0R   2/ 7   2/ 7
CAPE LOOKOUT NC  1600   82     100/  4/  5 1017.8S
$$




USA.gov is the U.S. government's official web portal to all federal, state and local government web resources and services.